TAM3507 SBRJ-SBGR

Flight info

Callsign TAM3507
Flight time 0h 46m
Altitude 32000
Route ESORU UZ10 EDMUS
Aircraft A320/M-SDE3FGHIRWY/LB1

Departure

Time 2026-04-30 03:21
Airport Santos Dumont Airport (SBRJ)

Arrival

Time 2026-04-30 04:08
Airport São Paulo/Guarulhos–Governor André Franco Montoro International Airport (SBGR)
Time Latitude Longitude Altitude Speed Heading
2026-04-30 02:55 -22.91208 -43.16587 30 ft 0 kts 267°
2026-04-30 03:10 -22.91208 -43.16586 16 ft 2 kts 267°
2026-04-30 03:10 -22.91207 -43.16568 30 ft 2 kts 269°
2026-04-30 03:11 -22.91206 -43.16550 30 ft 2 kts 268°
2026-04-30 03:11 -22.91206 -43.16532 30 ft 2 kts 273°
2026-04-30 03:11 -22.91209 -43.16514 30 ft 2 kts 345°
2026-04-30 03:11 -22.91213 -43.16513 30 ft 0 kts
2026-04-30 03:17 -22.91171 -43.16513 30 ft 11 kts 359°
2026-04-30 03:17 -22.91069 -43.16534 30 ft 17 kts 353°
2026-04-30 03:17 -22.90959 -43.16540 30 ft 15 kts 357°
2026-04-30 03:18 -22.90860 -43.16545 30 ft 14 kts 357°
2026-04-30 03:18 -22.90771 -43.16543 30 ft 12 kts 359°
2026-04-30 03:18 -22.90692 -43.16546 30 ft 11 kts 357°
2026-04-30 03:18 -22.90602 -43.16551 30 ft 17 kts 356°
2026-04-30 03:19 -22.90507 -43.16532 30 ft 10 kts 63°
2026-04-30 03:19 -22.90499 -43.16492 30 ft 0 kts 87°
2026-04-30 03:19 -22.90499 -43.16478 30 ft 7 kts 87°
2026-04-30 03:20 -22.90484 -43.16379 30 ft 17 kts 61°
2026-04-30 03:20 -22.90483 -43.16321 29 ft 4 kts 181°
2026-04-30 03:20 -22.90491 -43.16320 29 ft 5 kts 178°
2026-04-30 03:20 -22.90854 -43.16296 29 ft 98 kts 176°
2026-04-30 03:21 -22.91782 -43.16236 220 ft 153 kts 177°
2026-04-30 03:21 -22.92858 -43.15989 1004 ft 167 kts 153°
2026-04-30 03:21 -22.93667 -43.15098 1764 ft 167 kts 118°
2026-04-30 03:21 -22.94360 -43.14017 2100 ft 189 kts 130°
2026-04-30 03:22 -22.95339 -43.12924 2343 ft 215 kts 139°
2026-04-30 03:22 -22.96538 -43.11825 2829 ft 233 kts 140°
2026-04-30 03:22 -22.97812 -43.10703 3606 ft 238 kts 140°
2026-04-30 03:22 -22.99276 -43.09858 4393 ft 244 kts 169°
2026-04-30 03:23 -23.00977 -43.10035 4972 ft 259 kts 205°
2026-04-30 03:23 -23.02053 -43.10737 5252 ft 273 kts 217°
2026-04-30 03:23 -23.04057 -43.12473 6290 ft 282 kts 221°
2026-04-30 03:23 -23.05551 -43.13870 7151 ft 285 kts 221°
2026-04-30 03:24 -23.07010 -43.15344 7969 ft 289 kts 232°
2026-04-30 03:24 -23.07658 -43.16602 8479 ft 291 kts 253°
2026-04-30 03:24 -23.07747 -43.18777 9268 ft 293 kts 285°
2026-04-30 03:24 -23.06762 -43.20686 10053 ft 294 kts 317°
2026-04-30 03:25 -23.04980 -43.21816 10518 ft 309 kts 344°
2026-04-30 03:25 -23.02783 -43.22164 10831 ft 328 kts 356°
2026-04-30 03:25 -23.00524 -43.22621 11413 ft 335 kts 337°
2026-04-30 03:25 -22.98524 -43.23926 12082 ft 338 kts 320°
2026-04-30 03:26 -22.96833 -43.25691 12850 ft 338 kts 311°
2026-04-30 03:26 -22.95316 -43.27654 13612 ft 340 kts 308°
2026-04-30 03:26 -22.93850 -43.29677 14302 ft 342 kts 308°
2026-04-30 03:26 -22.92362 -43.31693 14952 ft 343 kts 308°
2026-04-30 03:27 -22.90825 -43.33684 15588 ft 345 kts 309°
2026-04-30 03:27 -22.89257 -43.35669 16234 ft 347 kts 309°
2026-04-30 03:27 -22.87664 -43.37651 16879 ft 349 kts 310°
2026-04-30 03:27 -22.86050 -43.39632 17514 ft 351 kts 310°
2026-04-30 03:28 -22.84422 -43.41620 18149 ft 354 kts 310°
2026-04-30 03:28 -22.82821 -43.43655 18699 ft 355 kts 304°
2026-04-30 03:28 -22.81741 -43.46046 19216 ft 356 kts 287°
2026-04-30 03:28 -22.81451 -43.48714 19721 ft 361 kts 268°
2026-04-30 03:29 -22.81893 -43.51405 20273 ft 365 kts 260°
2026-04-30 03:29 -22.82445 -43.54097 20799 ft 367 kts 261°
2026-04-30 03:29 -22.82998 -43.56776 21305 ft 370 kts 261°
2026-04-30 03:29 -22.83562 -43.59512 21802 ft 373 kts 261°
2026-04-30 03:30 -22.84129 -43.62264 22305 ft 375 kts 261°
2026-04-30 03:30 -22.84698 -43.65040 22803 ft 378 kts 261°
2026-04-30 03:30 -22.85265 -43.67827 23289 ft 380 kts 262°
2026-04-30 03:30 -22.85835 -43.70638 23749 ft 383 kts 262°
2026-04-30 03:31 -22.86408 -43.73466 24145 ft 385 kts 262°
2026-04-30 03:31 -22.86983 -43.76312 24543 ft 387 kts 262°
2026-04-30 03:31 -22.87560 -43.79166 24940 ft 389 kts 262°
2026-04-30 03:31 -22.88138 -43.82038 25334 ft 390 kts 262°
2026-04-30 03:32 -22.88718 -43.84923 25752 ft 391 kts 261°
2026-04-30 03:32 -22.89302 -43.87814 26083 ft 393 kts 262°
2026-04-30 03:32 -22.89890 -43.90720 26373 ft 395 kts 261°
2026-04-30 03:32 -22.90478 -43.93641 26739 ft 397 kts 261°
2026-04-30 03:33 -22.91068 -43.96578 27095 ft 399 kts 261°
2026-04-30 03:33 -22.91661 -43.99533 27447 ft 402 kts 261°
2026-04-30 03:33 -22.92256 -44.02495 27812 ft 403 kts 261°
2026-04-30 03:33 -22.92854 -44.05472 28195 ft 405 kts 261°
2026-04-30 03:34 -22.93455 -44.08462 28555 ft 406 kts 261°
2026-04-30 03:34 -22.94057 -44.11469 28912 ft 409 kts 261°
2026-04-30 03:34 -22.94658 -44.14493 29246 ft 411 kts 261°
2026-04-30 03:34 -22.95263 -44.17530 29589 ft 413 kts 261°
2026-04-30 03:35 -22.95870 -44.20583 29914 ft 415 kts 261°
2026-04-30 03:35 -22.96484 -44.23653 30212 ft 417 kts 261°
2026-04-30 03:35 -22.97100 -44.26734 30491 ft 419 kts 261°
2026-04-30 03:35 -22.97710 -44.29788 30800 ft 420 kts 261°
2026-04-30 03:36 -22.98327 -44.32890 31087 ft 421 kts 261°
2026-04-30 03:36 -22.98944 -44.35999 31374 ft 422 kts 261°
2026-04-30 03:36 -22.99560 -44.39121 31672 ft 423 kts 261°
2026-04-30 03:36 -23.00178 -44.42240 31992 ft 422 kts 261°
2026-04-30 03:37 -23.01387 -44.48330 32072 ft 398 kts 261°
2026-04-30 03:37 -23.02537 -44.54110 32071 ft 388 kts 261°
2026-04-30 03:38 -23.03655 -44.59818 32076 ft 385 kts 261°
2026-04-30 03:38 -23.04765 -44.65510 32082 ft 385 kts 261°
2026-04-30 03:39 -23.05877 -44.71203 32080 ft 385 kts 261°
2026-04-30 03:39 -23.06991 -44.76882 32060 ft 383 kts 261°
2026-04-30 03:40 -23.08103 -44.82561 32078 ft 385 kts 261°
2026-04-30 03:40 -23.08656 -44.85400 31969 ft 383 kts 261°
2026-04-30 03:40 -23.09203 -44.88198 31735 ft 377 kts 262°
2026-04-30 03:41 -23.09743 -44.90973 31493 ft 374 kts 262°
2026-04-30 03:41 -23.10278 -44.93730 31255 ft 373 kts 262°
2026-04-30 03:41 -23.10811 -44.96480 31018 ft 371 kts 262°
2026-04-30 03:41 -23.11338 -44.99193 30789 ft 370 kts 262°
2026-04-30 03:42 -23.11867 -45.01921 30546 ft 366 kts 262°
2026-04-30 03:42 -23.12387 -45.04604 30154 ft 361 kts 262°
2026-04-30 03:42 -23.12904 -45.07266 29710 ft 358 kts 262°
2026-04-30 03:42 -23.13414 -45.09894 29316 ft 353 kts 262°
2026-04-30 03:43 -23.13917 -45.12492 28928 ft 348 kts 262°
2026-04-30 03:43 -23.14414 -45.15055 28553 ft 343 kts 262°
2026-04-30 03:43 -23.14900 -45.17577 28190 ft 339 kts 263°
2026-04-30 03:43 -23.15380 -45.20073 27818 ft 335 kts 263°
2026-04-30 03:44 -23.15854 -45.22535 27447 ft 331 kts 263°
2026-04-30 03:44 -23.16323 -45.24972 27084 ft 328 kts 263°
2026-04-30 03:44 -23.16786 -45.27385 26708 ft 325 kts 263°
2026-04-30 03:44 -23.17242 -45.29773 26339 ft 322 kts 263°
2026-04-30 03:45 -23.17689 -45.32114 25964 ft 319 kts 263°
2026-04-30 03:45 -23.18146 -45.34501 25574 ft 317 kts 263°
2026-04-30 03:45 -23.18587 -45.36810 25196 ft 315 kts 263°
2026-04-30 03:45 -23.19036 -45.39135 24774 ft 315 kts 263°
2026-04-30 03:46 -23.19520 -45.41456 24335 ft 316 kts 262°
2026-04-30 03:46 -23.20036 -45.43780 23895 ft 317 kts 262°
2026-04-30 03:46 -23.20564 -45.46109 23400 ft 318 kts 262°
2026-04-30 03:46 -23.21092 -45.48440 22933 ft 317 kts 261°
2026-04-30 03:47 -23.21617 -45.50760 22486 ft 315 kts 261°
2026-04-30 03:47 -23.22134 -45.53071 22059 ft 314 kts 261°
2026-04-30 03:47 -23.22646 -45.55376 21633 ft 313 kts 261°
2026-04-30 03:47 -23.23203 -45.57669 21200 ft 314 kts 258°
2026-04-30 03:48 -23.23821 -45.59944 20773 ft 314 kts 257°
2026-04-30 03:48 -23.24468 -45.62214 20338 ft 314 kts 257°
2026-04-30 03:48 -23.25119 -45.64485 19941 ft 315 kts 257°
2026-04-30 03:48 -23.25764 -45.66756 19527 ft 315 kts 257°
2026-04-30 03:49 -23.26405 -45.69036 19110 ft 316 kts 256°
2026-04-30 03:49 -23.27043 -45.71324 18693 ft 316 kts 256°
2026-04-30 03:49 -23.27679 -45.73621 18244 ft 317 kts 256°
2026-04-30 03:49 -23.28314 -45.75916 17805 ft 317 kts 255°
2026-04-30 03:50 -23.28945 -45.78208 17406 ft 316 kts 256°
2026-04-30 03:50 -23.29564 -45.80463 16997 ft 315 kts 256°
2026-04-30 03:50 -23.30188 -45.82743 16591 ft 314 kts 256°
2026-04-30 03:50 -23.30811 -45.85020 16189 ft 314 kts 255°
2026-04-30 03:51 -23.31434 -45.87296 15791 ft 314 kts 255°
2026-04-30 03:51 -23.32060 -45.89574 15390 ft 314 kts 255°
2026-04-30 03:51 -23.32688 -45.91854 15053 ft 312 kts 255°
2026-04-30 03:51 -23.33318 -45.94085 14945 ft 306 kts 254°
2026-04-30 03:52 -23.33945 -45.96288 14789 ft 304 kts 254°
2026-04-30 03:52 -23.34573 -45.98488 14633 ft 304 kts 254°
2026-04-30 03:52 -23.35198 -46.00683 14475 ft 303 kts 254°
2026-04-30 03:52 -23.35821 -46.02875 14319 ft 303 kts 254°
2026-04-30 03:53 -23.36441 -46.05064 14161 ft 303 kts 254°
2026-04-30 03:53 -23.37062 -46.07253 14001 ft 302 kts 254°
2026-04-30 03:53 -23.37679 -46.09437 13837 ft 302 kts 254°
2026-04-30 03:53 -23.38294 -46.11622 13672 ft 302 kts 254°
2026-04-30 03:54 -23.38908 -46.13801 13516 ft 301 kts 254°
2026-04-30 03:54 -23.39473 -46.15808 13378 ft 301 kts 254°
2026-04-30 03:54 -23.40082 -46.17977 13235 ft 300 kts 254°
2026-04-30 03:54 -23.40692 -46.20148 13083 ft 299 kts 254°
2026-04-30 03:55 -23.41300 -46.22310 12886 ft 297 kts 254°
2026-04-30 03:55 -23.41905 -46.24452 12847 ft 297 kts 253°
2026-04-30 03:55 -23.42511 -46.26598 12191 ft 295 kts 254°
2026-04-30 03:55 -23.42942 -46.28764 11879 ft 291 kts 266°
2026-04-30 03:56 -23.42806 -46.30946 11564 ft 289 kts 283°
2026-04-30 03:56 -23.42109 -46.32990 11233 ft 288 kts 298°
2026-04-30 03:56 -23.41025 -46.34824 10871 ft 288 kts 302°
2026-04-30 03:56 -23.39921 -46.36641 10529 ft 288 kts 302°
2026-04-30 03:57 -23.38823 -46.38456 10189 ft 286 kts 302°
2026-04-30 03:57 -23.37731 -46.40263 9834 ft 285 kts 302°
2026-04-30 03:57 -23.36646 -46.42060 9459 ft 283 kts 302°
2026-04-30 03:57 -23.35567 -46.43847 9087 ft 282 kts 302°
2026-04-30 03:58 -23.34496 -46.45623 8724 ft 280 kts 302°
2026-04-30 03:58 -23.33432 -46.47385 8375 ft 278 kts 303°
2026-04-30 03:58 -23.32376 -46.49134 8013 ft 276 kts 303°
2026-04-30 03:58 -23.31327 -46.50870 7636 ft 274 kts 303°
2026-04-30 03:59 -23.30282 -46.52601 7297 ft 272 kts 303°
2026-04-30 03:59 -23.29247 -46.54313 6942 ft 270 kts 303°
2026-04-30 03:59 -23.28218 -46.56013 6583 ft 268 kts 303°
2026-04-30 03:59 -23.27309 -46.57729 6348 ft 260 kts 290°
2026-04-30 04:00 -23.27045 -46.59627 6191 ft 252 kts 267°
2026-04-30 04:00 -23.27489 -46.61422 6077 ft 243 kts 245°
2026-04-30 04:00 -23.28490 -46.62852 5967 ft 235 kts 223°
2026-04-30 04:00 -23.29853 -46.63759 5909 ft 228 kts 207°
2026-04-30 04:01 -23.31284 -46.64499 5916 ft 227 kts 208°
2026-04-30 04:01 -23.32725 -46.65253 5920 ft 226 kts 208°
2026-04-30 04:01 -23.34125 -46.65988 5934 ft 227 kts 208°
2026-04-30 04:01 -23.35547 -46.66735 5936 ft 227 kts 208°
2026-04-30 04:02 -23.36964 -46.67479 5941 ft 226 kts 208°
2026-04-30 04:02 -23.38384 -46.68222 5950 ft 227 kts 208°
2026-04-30 04:02 -23.39806 -46.68965 5947 ft 226 kts 207°
2026-04-30 04:02 -23.41329 -46.69403 5961 ft 231 kts 183°
2026-04-30 04:03 -23.42902 -46.69084 6018 ft 232 kts 157°
2026-04-30 04:03 -23.44194 -46.68056 6004 ft 229 kts 130°
2026-04-30 04:03 -23.45070 -46.66703 5972 ft 209 kts 124°
2026-04-30 04:03 -23.45866 -46.65426 5779 ft 200 kts 124°
2026-04-30 04:04 -23.46574 -46.64145 5514 ft 196 kts 112°
2026-04-30 04:04 -23.46928 -46.62733 5187 ft 192 kts 96°
2026-04-30 04:04 -23.46859 -46.61300 4926 ft 190 kts 77°
2026-04-30 04:04 -23.46532 -46.59907 4675 ft 190 kts 73°
2026-04-30 04:05 -23.46171 -46.58532 4419 ft 188 kts 73°
2026-04-30 04:05 -23.45806 -46.57168 4192 ft 187 kts 73°
2026-04-30 04:05 -23.45443 -46.55818 3949 ft 185 kts 73°
2026-04-30 04:05 -23.45091 -46.54513 3731 ft 173 kts 73°
2026-04-30 04:06 -23.44764 -46.53296 3496 ft 163 kts 73°
2026-04-30 04:06 -23.44454 -46.52147 3257 ft 154 kts 74°
2026-04-30 04:06 -23.44158 -46.51048 3040 ft 149 kts 74°
2026-04-30 04:06 -23.43868 -46.49973 2827 ft 147 kts 74°
2026-04-30 04:07 -23.43583 -46.48911 2610 ft 145 kts 74°
2026-04-30 04:07 -23.43301 -46.47863 2464 ft 140 kts 75°
2026-04-30 04:07 -23.43074 -46.47015 2463 ft 92 kts 73°
2026-04-30 04:08 -23.42826 -46.46141 2462 ft 27 kts 75°
2026-04-30 04:08 -23.42751 -46.46016 2461 ft 21 kts 360°
2026-04-30 04:08 -23.42661 -46.46042 2462 ft 0 kts 346°
2026-04-30 04:10 -23.42663 -46.46041 2464 ft 0 kts 346°
2026-04-30 04:10 -23.42613 -46.46055 2464 ft 15 kts 344°
2026-04-30 04:10 -23.42577 -46.46127 2463 ft 11 kts 250°
2026-04-30 04:10 -23.42589 -46.46179 2463 ft 10 kts 258°
2026-04-30 04:11 -23.42604 -46.46246 2463 ft 8 kts 256°
2026-04-30 04:11 -23.42621 -46.46310 2463 ft 12 kts 253°
2026-04-30 04:11 -23.42673 -46.46485 2461 ft 21 kts 252°
2026-04-30 04:11 -23.42702 -46.46592 2464 ft 22 kts 254°
2026-04-30 04:12 -23.42744 -46.46751 2466 ft 22 kts 253°
2026-04-30 04:12 -23.42792 -46.46919 2466 ft 23 kts 256°
2026-04-30 04:12 -23.42836 -46.47082 2466 ft 24 kts 252°
2026-04-30 04:12 -23.42884 -46.47274 2466 ft 27 kts 256°
2026-04-30 04:13 -23.42936 -46.47475 2464 ft 28 kts 253°
2026-04-30 04:13 -23.42995 -46.47685 2463 ft 30 kts 253°
2026-04-30 04:13 -23.43055 -46.47899 2467 ft 30 kts 253°
2026-04-30 04:13 -23.43101 -46.48102 2468 ft 15 kts 277°
2026-04-30 04:14 -23.43070 -46.48124 2465 ft 4 kts 353°
2026-04-30 04:14 -23.42998 -46.48135 2468 ft 17 kts 352°
2026-04-30 04:14 -23.42877 -46.48146 2465 ft 17 kts
2026-04-30 04:14 -23.42796 -46.48167 2467 ft 6 kts 290°
2026-04-30 04:15 -23.42805 -46.48204 2465 ft 4 kts 263°
2026-04-30 04:15 -23.42806 -46.48224 2465 ft 1 kts 266°
2026-04-30 04:15 -23.42807 -46.48236 2465 ft 2 kts 265°
2026-04-30 04:15 -23.42808 -46.48242 2465 ft 1 kts 264°
2026-04-30 04:16 -23.42808 -46.48250 2465 ft 0 kts 264°
2026-04-30 04:16 -23.42808 -46.48243 2465 ft 0 kts 264°